When you browse on this site, cookies collect data to enhance your experience and personalize the content and advertising you see.
Visit our Privacy Policy to learn more. By continuing to use the site, you agree to this use of cookies and data.
  • In Austria
  • List of Countries
  • For 7 days
  • Water Temperature
  • Weather Map
  • News
  • Weather Widgets
  • user-avatar
    Login

    Hourly Weather Sevan

    Today, 29 February, Saturday

    Time Temperature Precipitation Wind Pressure Humidity
    00:00 -1°C° 0 mm 2 mps 637 mmHg 65%
    01:00 -1°C° 0 mm 2 mps 636 mmHg 65%
    02:00 -1°C° 0 mm 2 mps 636 mmHg 66%
    03:00 +1°C° 0 mm 1 mps 636 mmHg 64%
    04:00 +1°C° 0 mm 1 mps 636 mmHg 64%
    05:00 +1°C° 0 mm 1 mps 636 mmHg 65%
    06:00 +1°C° 0 mm 1 mps 636 mmHg 65%
    07:00 +2°C° 0 mm 1 mps 637 mmHg 66%
    08:00 +3°C° 0 mm 1 mps 637 mmHg 66%
    09:00 +4°C° 0 mm 1 mps 637 mmHg 67%
    10:00 +5°C° 0 mm 1 mps 637 mmHg 69%
    11:00 +6°C° 0 mm 1 mps 637 mmHg 71%
    12:00 +6°C° 0 mm 1 mps 636 mmHg 72%
    13:00 +7°C° 0 mm 1 mps 636 mmHg 72%
    14:00 +7°C° 0 mm 1 mps 635 mmHg 72%
    15:00 +7°C° 0 mm 1 mps 635 mmHg 72%
    16:00 +6°C° 0 mm 1 mps 635 mmHg 71%
    17:00 +6°C° 0 mm 1 mps 635 mmHg 69%
    18:00 +4°C° 0 mm 2 mps 635 mmHg 68%
    19:00 +3°C° 0.2 mm 2 mps 634 mmHg 73%
    20:00 +3°C° 0.2 mm 2 mps 634 mmHg 79%
    21:00 +3°C° 0.2 mm 2 mps 634 mmHg 84%
    22:00 +3°C° 0.3 mm 2 mps 634 mmHg 84%
    23:00 +3°C° 0.3 mm 2 mps 634 mmHg 84%

    Tomorrow, 1 March, Sunday

    Time Temperature Precipitation Wind Pressure Humidity
    00:00 +4°C° 0.3 mm 1 mps 634 mmHg 84%
    01:00 +3°C° 0.5 mm 2 mps 634 mmHg 86%
    02:00 +3°C° 0.5 mm 2 mps 634 mmHg 89%
    03:00 +3°C° 0.5 mm 2 mps 634 mmHg 91%
    04:00 +3°C° 0.3 mm 2 mps 634 mmHg 91%
    05:00 +2°C° 0.3 mm 2 mps 634 mmHg 91%
    06:00 +3°C° 0.3 mm 1 mps 634 mmHg 92%
    07:00 +4°C° 0.1 mm 1 mps 635 mmHg 91%
    08:00 +4°C° 0.1 mm 1 mps 635 mmHg 91%
    09:00 +5°C° 0.1 mm 1 mps 635 mmHg 90%
    10:00 +5°C° 0.3 mm 1 mps 635 mmHg 89%
    11:00 +5°C° 0.3 mm 1 mps 635 mmHg 88%
    12:00 +6°C° 0.3 mm 1 mps 636 mmHg 87%
    13:00 +6°C° 0.2 mm 1 mps 635 mmHg 86%
    14:00 +6°C° 0.2 mm 1 mps 635 mmHg 85%
    15:00 +6°C° 0.2 mm 1 mps 635 mmHg 84%
    16:00 +5°C° 0.1 mm 1 mps 635 mmHg 82%
    17:00 +5°C° 0.1 mm 1 mps 636 mmHg 81%
    18:00 +3°C° 0.1 mm 2 mps 636 mmHg 79%
    19:00 +3°C° 0 mm 2 mps 636 mmHg 79%
    20:00 +2°C° 0 mm 2 mps 637 mmHg 79%
    21:00 +2°C° 0 mm 2 mps 637 mmHg 79%
    22:00 +1°C° 0 mm 2 mps 637 mmHg 79%
    23:00 +1°C° 0 mm 2 mps 637 mmHg 78%

    Day after tomorrow, 2 March, Monday

    Time Temperature Precipitation Wind Pressure Humidity
    00:00 -1°C° 0 mm 3 mps 637 mmHg 78%
    01:00 -1°C° 0 mm 3 mps 637 mmHg 78%
    02:00 -1°C° 0 mm 3 mps 637 mmHg 78%
    03:00 -1°C° 0 mm 3 mps 638 mmHg 77%
    04:00 -2°C° 0 mm 2 mps 638 mmHg 77%
    05:00 -2°C° 0 mm 2 mps 638 mmHg 77%
    06:00 -2°C° 0 mm 2 mps 638 mmHg 76%
    07:00 -1°C° 0 mm 2 mps 639 mmHg 75%
    08:00 +1°C° 0 mm 2 mps 639 mmHg 75%
    09:00 +3°C° 0 mm 1 mps 640 mmHg 74%
    10:00 +3°C° 0 mm 1 mps 640 mmHg 74%
    11:00 +4°C° 0 mm 1 mps 640 mmHg 74%
    12:00 +5°C° 0 mm 1 mps 640 mmHg 74%
    13:00 +5°C° 0 mm 1 mps 640 mmHg 74%
    14:00 +5°C° 0 mm 1 mps 640 mmHg 74%
    15:00 +6°C° 0 mm 1 mps 640 mmHg 74%
    16:00 +5°C° 0 mm 1 mps 640 mmHg 74%
    17:00 +4°C° 0 mm 1 mps 640 mmHg 75%
    18:00 +3°C° 0 mm 1 mps 640 mmHg 76%
    19:00 +3°C° 0 mm 1 mps 640 mmHg 76%
    20:00 +2°C° 0 mm 1 mps 640 mmHg 76%
    21:00 +1°C° 0 mm 1 mps 641 mmHg 75%
    22:00 +1°C° 0 mm 1 mps 641 mmHg 75%
    23:00 +1°C° 0 mm 1 mps 641 mmHg 75%

    3 March, Tuesday

    Time Temperature Precipitation Wind Pressure Humidity
    00:00 0°C° 0 mm 1 mps 641 mmHg 75%
    01:00 0°C° 0 mm 1 mps 641 mmHg 75%
    02:00 0°C° 0 mm 1 mps 641 mmHg 75%
    03:00 0°C° 0 mm 1 mps 641 mmHg 75%
    04:00 0°C° 0 mm 1 mps 641 mmHg 76%
    05:00 -1°C° 0 mm 1 mps 641 mmHg 78%
    06:00 -1°C° 0 mm 1 mps 641 mmHg 79%
    07:00 +1°C° 0 mm 1 mps 642 mmHg 77%
    08:00 +2°C° 0 mm 1 mps 643 mmHg 76%
    09:00 +3°C° 0 mm 1 mps 643 mmHg 75%
    10:00 +4°C° 0 mm 1 mps 643 mmHg 75%
    11:00 +5°C° 0 mm 1 mps 643 mmHg 75%
    12:00 +5°C° 0 mm 1 mps 643 mmHg 76%
    13:00 +6°C° 0 mm 1 mps 642 mmHg 75%
    14:00 +6°C° 0 mm 1 mps 642 mmHg 74%
    15:00 +6°C° 0 mm 1 mps 642 mmHg 73%
    16:00 +5°C° 0 mm 1 mps 642 mmHg 73%
    17:00 +4°C° 0 mm 1 mps 642 mmHg 74%
    18:00 +3°C° 0 mm 1 mps 642 mmHg 74%
    19:00 +3°C° 0 mm 1 mps 642 mmHg 72%
    20:00 +3°C° 0 mm 1 mps 642 mmHg 71%
    21:00 +2°C° 0 mm 1 mps 643 mmHg 69%
    22:00 +2°C° 0 mm 1 mps 643 mmHg 67%
    23:00 +2°C° 0 mm 1 mps 643 mmHg 66%

    4 March, Wednesday

    Time Temperature Precipitation Wind Pressure Humidity
    00:00 +1°C° 0 mm 1 mps 642 mmHg 65%
    01:00 +1°C° 0 mm 1 mps 642 mmHg 64%
    02:00 +1°C° 0 mm 1 mps 642 mmHg 64%
    03:00 +1°C° 0 mm 1 mps 642 mmHg 63%
    04:00 +1°C° 0 mm 1 mps 642 mmHg 62%
    05:00 0°C° 0 mm 1 mps 642 mmHg 61%
    06:00 0°C° 0 mm 1 mps 642 mmHg 61%
    07:00 +2°C° 0 mm 1 mps 643 mmHg 61%
    08:00 +3°C° 0 mm 1 mps 643 mmHg 60%
    09:00 +3°C° 0 mm 0 mps 644 mmHg 60%
    10:00 +5°C° 0 mm 1 mps 643 mmHg 62%
    11:00 +6°C° 0 mm 1 mps 643 mmHg 63%
    12:00 +7°C° 0 mm 1 mps 643 mmHg 64%
    13:00 +7°C° 0 mm 1 mps 643 mmHg 63%
    14:00 +7°C° 0 mm 1 mps 642 mmHg 62%
    15:00 +7°C° 0 mm 0 mps 642 mmHg 61%
    16:00 +7°C° 0 mm 1 mps 642 mmHg 60%
    17:00 +6°C° 0 mm 1 mps 642 mmHg 59%
    18:00 +4°C° 0 mm 1 mps 641 mmHg 58%
    19:00 +4°C° 0 mm 1 mps 642 mmHg 56%
    20:00 +4°C° 0 mm 1 mps 642 mmHg 54%
    21:00 +4°C° 0 mm 1 mps 642 mmHg 51%
    22:00 +4°C° 0 mm 1 mps 642 mmHg 51%
    23:00 +4°C° 0 mm 1 mps 642 mmHg 50%

    5 March, Thursday

    Time Temperature Precipitation Wind Pressure Humidity
    00:00 +3°C° 0 mm 1 mps 642 mmHg 50%
    01:00 +3°C° 0 mm 1 mps 642 mmHg 50%
    02:00 +3°C° 0 mm 1 mps 641 mmHg 50%
    03:00 +2°C° 0 mm 1 mps 641 mmHg 49%
    04:00 +2°C° 0 mm 1 mps 641 mmHg 49%
    05:00 +2°C° 0 mm 1 mps 641 mmHg 49%
    06:00 +2°C° 0 mm 1 mps 641 mmHg 49%
    07:00 +3°C° 0 mm 1 mps 641 mmHg 50%
    08:00 +4°C° 0 mm 1 mps 641 mmHg 51%
    09:00 +6°C° 0 mm 1 mps 642 mmHg 52%
    10:00 +6°C° 0 mm 1 mps 642 mmHg 54%
    11:00 +7°C° 0 mm 1 mps 641 mmHg 55%
    12:00 +8°C° 0 mm 1 mps 641 mmHg 57%
    13:00 +9°C° 0 mm 1 mps 641 mmHg 56%
    14:00 +9°C° 0 mm 1 mps 641 mmHg 55%
    15:00 +9°C° 0 mm 1 mps 640 mmHg 54%
    16:00 +8°C° 0 mm 1 mps 640 mmHg 53%
    17:00 +7°C° 0 mm 1 mps 640 mmHg 51%
    18:00 +5°C° 0 mm 2 mps 639 mmHg 50%
    19:00 +5°C° 0 mm 2 mps 639 mmHg 48%
    20:00 +4°C° 0 mm 2 mps 639 mmHg 46%
    21:00 +4°C° 0 mm 2 mps 640 mmHg 45%
    22:00 +4°C° 0 mm 2 mps 639 mmHg 46%
    23:00 +4°C° 0 mm 2 mps 639 mmHg 46%
    Show more